Regional Weather Roundup
Issued by NWS

Home | Current Version | Previous Version | Text Only | Print | Product List | Glossary Off
Versions: 1 2 3 4 5 6 7 8 9 10 11 12 13 14 15 16 17 18 19 20 21 22 23 24 25 26 27 28 29 30 31 32 33 34 35 36 37 38 39 40 41 42 43 44 45 46 47 48 49 50

000
ASUS43 KMPX 300001
RWRMN
WEATHER ROUNDUP FOR MINNESOTA
NATIONAL WEATHER SERVICE TWIN CITIES/CHANHASSEN MN
700 PM CDT SAT AUG 29 2015


NOTE: "FAIR" INDICATES FEW OR NO CLOUDS BELOW 12,000 FEET WITH NO
SIGNIFICANT WEATHER AND/OR OBSTRUCTIONS TO VISIBILITY. N/A MEANS
CURRENT SKY AND/OR WEATHER CONDITIONS ARE NOT AVAILABLE.

MNZ060>063-068>070-300100-
   Twin Cities Metro

CITY           SKY/WX    TMP DP  RH WIND       PRES   REMARKS
TWIN CITIES    MOCLDY    73  62  68 S5        30.02S
6HR MIN TEMP:  67; 6HR MAX TEMP:  74;

ST PAUL        CLEAR     71  64  78 SE5       30.02S
CRYSTAL        PTCLDY    73  62  68 S7        30.00F
BLAINE         MOCLDY    75  64  69 S6        30.01F
LAKEVILLE      CLEAR     70  66  88 CALM      30.02F
EDEN PRAIRIE   CLEAR     71  63  75 SW3       30.01F
6HR MIN TEMP:  66; 6HR MAX TEMP:  74;

SOUTH ST PAUL  CLEAR     72  62  71 CALM      30.02S
LAKE ELMO      FAIR      70  63  78 SE3       30.03F
$$
MNZ001>005-007-008-013>017-022>024-027-028-300100-
   Northwest Minnesota

CITY           SKY/WX    TMP DP  RH WIND       PRES   REMARKS
BEMIDJI        PTSUNNY   73  66  79 S8        29.91F
HALLOCK        MOSUNNY   79  70  73 S10       29.80F
ROSEAU         CLOUDY    75  70  83 S5        29.85F
WARROAD        CLOUDY    72  68  88 CALM      29.86F
THIEF RVR FALL CLOUDY   N/A N/A N/A S10       29.86F
CROOKSTON      PTSUNNY   79  70  73 S13       29.85F
FOSSTON        PTSUNNY   73  64  73 S8        29.90S
DETROIT LAKES  MOSUNNY   73  64  73 S13       29.93F
MOORHEAD       PTSUNNY   79  68  69 S10       29.89R
PARK RAPIDS    MOSUNNY   73  62  68 S14       29.94F
MAHNOMEN       FAIR      76  66  72 S10       29.90F
$$
MNZ006-009>011-018-025>026-300100-
   North Central Minnesota

CITY           SKY/WX    TMP DP  RH WIND       PRES   REMARKS
BAUDETTE       CLOUDY    72  67  84 SE7       29.87F
FLAG ISLAND    CLOUDY    68  66  94 S9        29.85F
INTL FALLS     MOCLDY    69  65  86 SE7       29.91F
6HR MIN TEMP:  69; 6HR MAX TEMP:  73;

WASKISH        MOCLDY    73  66  78 SE5       29.90S
BIG FORK       MOCLDY    72  66  83 S8        29.94F
LONGVILLE      MOCLDY    70  63  78 S9        29.96F
GRAND RAPIDS     N/A     70  63  78 S8        29.97F
CRANE LAKE     CLOUDY    68  64  88 S1        29.96F
ORR            CLOUDY    68  63  83 CALM      29.93F
COOK           CLOUDY    70  64  83 CALM      29.96S
WALKER         FAIR      71  64  77 S8        29.93F
$$
MNZ012-019>021-037-300100-
   Northeast Minnesota

CITY           SKY/WX    TMP DP  RH WIND       PRES   REMARKS
DULUTH         MOCLDY    71  63  75 SW8       29.99F
6HR MIN TEMP:  71; 6HR MAX TEMP:  74;

ELY            CLOUDY    68  63  83 SW5       29.98R
HIBBING        MOCLDY    71  63  75 S6        29.97F
EVELETH        MOCLDY    68  63  83 CALM      29.99S
DULUTH HARBOR  MOCLDY    75  66  73 S8        29.97S
TWO HARBORS    MOCLDY    73  66  78 SW3       29.96S
SILVER BAY     MOCLDY    72  64  78 CALM      29.96S
GRAND MARAIS     N/A     53  50  89 W5        29.95F
G MARAIS ARPRT CLEAR     64  59  82 S5        30.01S
$$
MNZ029>031-032-039>041-046>048-054>057-064-300100-
   West Central Minnesota

CITY           SKY/WX    TMP DP  RH WIND       PRES   REMARKS
FERGUS FALLS   MOSUNNY   73  64  73 S13       29.92F
WHEATON        MOSUNNY   72  64  78 SE12      29.93F
MORRIS         PTSUNNY   73  66  78 SE9       29.94F
ALEXANDRIA     PTSUNNY   71  62  73 S12       29.98F
ELBOW LAKE     FAIR      71  64  80 SE9       29.94F
WADENA         PTSUNNY   70  63  78 S8        29.95F
GLENWOOD       PTSUNNY   70  63  78 SE9       29.99S
APPLETON       PTSUNNY   75  64  69 SE7       29.94F
BENSON         CLOUDY    72  63  73 S7        29.96F
ORTONVILLE     MOSUNNY   75  64  69 SE7       29.94S
MADISON        PTSUNNY   73  64  73 S6        29.95F
WILLMAR        FAIR      70  64  83 SE5       30.00S
$$
MNZ033>034-036-042>043-049>051-058-059-300100-
   Central Minnesota

CITY           SKY/WX    TMP DP  RH WIND       PRES   REMARKS
ST CLOUD       MOCLDY    69  63  81 S6        30.00S
6HR MIN TEMP:  69; 6HR MAX TEMP:  74;

SAUK CENTRE    FAIR      69  63  80 S7        29.98F
PAYNESVILLE    MOCLDY    70  63  78 E7        29.99F
AITKIN         PTCLDY    72  63  73 S5        29.98S
PINE RIVER     MOCLDY    70  63  78 S7        30.00F
BRAINERD       MOCLDY    70  62  76 S7        29.98F
STAPLES        PTSUNNY   70  61  73 S8        29.97S
LONG PRAIRIE   FAIR      68  63  83 S7        29.99F
LITTLE FALLS   CLOUDY    70  61  73 SE5       29.99F
LITCHFIELD     MOCLDY    72  66  83 S5        30.01S
BUFFALO        PTCLDY    68  62  80 SE3       30.01F
MAPLE LAKE     PTCLDY    68  64  88 CALM      30.01F
$$
MNZ037-044-045-052-053-300100-
   East Central Minnesota

CITY           SKY/WX    TMP DP  RH WIND       PRES   REMARKS
PRINCETON      MOCLDY    72  63  73 S3        30.00F
MORA           MOCLDY    70  63  78 S3        30.02S
CAMBRIDGE      MOCLDY    72  61  68 SE3       29.99F
RUSH CITY      PTCLDY    69  63  82 S5        30.01F
MOOSE LAKE     CLEAR     70  61  73 S3        29.98F
HINCKLEY       FAIR      70  64  83 S5        30.00F
CLOQUET        PTCLDY    72  61  68 S7        29.99S
MCGREGOR       PTCLDY    72  63  73 S7        29.99F
$$
MNZ071>073-080-081-089-090-097-098-300100-
   Southwest Minnesota

CITY           SKY/WX    TMP DP  RH WIND       PRES   REMARKS
MONTEVIDEO     CLOUDY    73  66  78 S7        29.99S
GRANITE FALLS  CLOUDY    73  66  78 SE6       30.00S
CANBY          MOSUNNY   75  63  65 S8        29.97F
MARSHALL       PTSUNNY   75  63  64 S10       30.00S
REDWOOD FALLS  CLOUDY    71  66  84 SE8       29.99F
OLIVIA         CLOUDY    68  61  77 SE7       29.99F
PIPESTONE      SUNNY     72  64  78 S6        30.01F
WINDOM         MOSUNNY   72  64  78 S5        30.02F
WORTHINGTON    MOSUNNY   70  63  78 S8        30.03F
JACKSON        MOSUNNY   72  64  78 S6        30.04F
TRACY          MOSUNNY   74  66  76 S6        30.01S
SLAYTON        MOSUNNY   71  66  85 CALM      30.03S
$$
MNZ065>067-074>077-082>085-091>093-300100-
   South Central Minnesota

CITY           SKY/WX    TMP DP  RH WIND       PRES   REMARKS
MANKATO        CLEAR     68  61  77 S3        30.04S
NEW ULM        MOCLDY    68  64  88 SE8       30.02F
ST JAMES       PTCLDY    70  66  88 SE6       30.04S
FAIRMONT       PTCLDY    66  59  77 S5        30.04S
GLENCOE        PTCLDY    70  65  85 SE5       30.01F
FARIBAULT      CLEAR     72  64  78 CALM      30.03F
OWATONNA       MOCLDY    72  64  78 CALM      30.04S
WASECA         CLEAR     68  63  83 CALM      30.05F
ALBERT LEA     PTCLDY    72  66  83 CALM      30.04S
$$
MNZ078>079-086>088-094>096-300100-
   Southeast Minnesota

CITY           SKY/WX    TMP DP  RH WIND       PRES   REMARKS
ROCHESTER      MOCLDY    70  65  84 SE5       30.05S
6HR MIN TEMP:  70; 6HR MAX TEMP:  75;

RED WING       PTCLDY    72  63  73 SE5       30.02S
STANTON        PTCLDY    73  64  73 CALM      30.01F
DODGE CENTER   PTCLDY    72  64  78 CALM      30.04F
WINONA         CLOUDY    70  61  73 CALM      30.04F
AUSTIN         MOCLDY    73  64  73 CALM      30.03F
PRESTON        PTCLDY    69  62  78 CALM      30.06S
$$
ABBREVIATIONS USED IN REMARKS
   TC - TEMPERATURES IN CELSIUS
  WCI - WIND CHILL INDEX
   HX - HEAT INDEX
  VSB - VISIBILITY
$$



USA.gov is the U.S. government's official web portal to all federal, state and local government web resources and services.